RYR1676 EINN-EGPH

Flight info

Callsign RYR1676
Flight time N/A
Altitude 35000
Route AGINI3A AGINI DCT ROTEV DCT GOTNA DCT BLACA P600 TUNSO
Aircraft B738/M-SDE3FGILRWY/SB1

Departure

Time N/A
Airport Shannon Airport (EINN)

Arrival

Time 2026-04-22 17:19
Airport Edinburgh Airport (EGPH)
Time Latitude Longitude Altitude Speed Heading
2026-04-22 16:33 53.47390 -7.69312 28474 ft 441 kts 63°
2026-04-22 16:33 53.48952 -7.64876 28890 ft 444 kts 63°
2026-04-22 16:34 53.50524 -7.60406 29334 ft 446 kts 63°
2026-04-22 16:34 53.52103 -7.55910 29805 ft 447 kts 63°
2026-04-22 16:34 53.53686 -7.51391 30228 ft 449 kts 63°
2026-04-22 16:34 53.55276 -7.46844 30571 ft 452 kts 63°
2026-04-22 16:35 53.56866 -7.42287 30924 ft 453 kts 63°
2026-04-22 16:35 53.58461 -7.37713 31351 ft 453 kts 63°
2026-04-22 16:35 53.60048 -7.33151 31790 ft 452 kts 63°
2026-04-22 16:35 53.61638 -7.28571 32189 ft 452 kts 63°
2026-04-22 16:36 53.63225 -7.23990 32502 ft 455 kts 62°
2026-04-22 16:36 53.64820 -7.19375 32785 ft 457 kts 62°
2026-04-22 16:36 53.66421 -7.14736 33198 ft 457 kts 62°
2026-04-22 16:36 53.68014 -7.10114 33656 ft 455 kts 62°
2026-04-22 16:37 53.69605 -7.05488 34056 ft 455 kts 62°
2026-04-22 16:37 53.71190 -7.00871 34378 ft 456 kts 62°
2026-04-22 16:37 53.72781 -6.96226 34696 ft 456 kts 62°
2026-04-22 16:37 53.74365 -6.91595 35067 ft 455 kts 62°
2026-04-22 16:38 53.75946 -6.86963 35340 ft 456 kts 62°
2026-04-22 16:38 53.77539 -6.82282 35324 ft 461 kts 62°
2026-04-22 16:38 53.80719 -6.72921 35314 ft 455 kts 61°
2026-04-22 16:39 53.83824 -6.63748 35328 ft 451 kts 61°
2026-04-22 16:39 53.86957 -6.54452 35336 ft 452 kts 61°
2026-04-22 16:40 53.90067 -6.45191 35347 ft 452 kts 62°
2026-04-22 16:41 53.94720 -6.31269 35346 ft 453 kts 62°
2026-04-22 16:41 53.97822 -6.21947 35358 ft 453 kts 61°
2026-04-22 16:42 54.00914 -6.12690 35361 ft 454 kts 58°
2026-04-22 16:42 54.02853 -6.08462 35365 ft 453 kts 45°
2026-04-22 16:42 54.05221 -6.04941 35365 ft 452 kts 34°
2026-04-22 16:43 54.10641 -5.99985 34980 ft 436 kts 23°
2026-04-22 16:43 54.13389 -5.97817 34497 ft 436 kts 22°
2026-04-22 16:43 54.16148 -5.95646 33918 ft 437 kts 22°
2026-04-22 16:43 54.18900 -5.93454 33444 ft 435 kts 23°
2026-04-22 16:44 54.21620 -5.91255 33076 ft 430 kts 23°
2026-04-22 16:44 54.24311 -5.89057 32711 ft 427 kts 24°
2026-04-22 16:44 54.26978 -5.86864 32323 ft 424 kts 24°
2026-04-22 16:44 54.29627 -5.84678 31921 ft 421 kts 24°
2026-04-22 16:45 54.32253 -5.82506 31535 ft 419 kts 24°
2026-04-22 16:45 54.34875 -5.80334 31163 ft 416 kts 24°
2026-04-22 16:45 54.37473 -5.78180 30803 ft 414 kts 24°
2026-04-22 16:45 54.40066 -5.76028 30393 ft 413 kts 24°
2026-04-22 16:46 54.42644 -5.73886 29948 ft 410 kts 24°
2026-04-22 16:46 54.45202 -5.71756 29536 ft 407 kts 24°
2026-04-22 16:46 54.47740 -5.69641 29118 ft 404 kts 24°
2026-04-22 16:46 54.50264 -5.67535 28697 ft 402 kts 24°
2026-04-22 16:47 54.52771 -5.65440 28285 ft 400 kts 24°
2026-04-22 16:47 54.55263 -5.63356 27874 ft 397 kts 24°
2026-04-22 16:47 54.56912 -5.61974 27598 ft 396 kts 24°
2026-04-22 16:47 54.60124 -5.58909 27057 ft 395 kts 35°
2026-04-22 16:48 54.62214 -5.55948 26673 ft 393 kts 40°
2026-04-22 16:48 54.64246 -5.52827 26319 ft 391 kts 41°
2026-04-22 16:48 54.66265 -5.49693 25939 ft 389 kts 41°
2026-04-22 16:48 54.68273 -5.46585 25591 ft 386 kts 41°
2026-04-22 16:49 54.70275 -5.43506 25193 ft 385 kts 41°
2026-04-22 16:49 54.72276 -5.40442 24885 ft 382 kts 40°
2026-04-22 16:49 54.74245 -5.37434 24675 ft 375 kts 40°
2026-04-22 16:49 54.76191 -5.34464 24357 ft 372 kts 40°
2026-04-22 16:50 54.77501 -5.32463 24096 ft 372 kts 40°
2026-04-22 16:50 54.79440 -5.29500 23689 ft 371 kts 40°
2026-04-22 16:50 54.81364 -5.26554 23296 ft 368 kts 40°
2026-04-22 16:50 54.83278 -5.23621 22933 ft 366 kts 41°
2026-04-22 16:51 54.85151 -5.20747 22555 ft 363 kts 41°
2026-04-22 16:51 54.87063 -5.17811 22168 ft 361 kts 40°
2026-04-22 16:51 54.89028 -5.15219 21792 ft 358 kts 30°
2026-04-22 16:51 54.91228 -5.13201 21461 ft 356 kts 25°
2026-04-22 16:52 54.93440 -5.11331 21142 ft 352 kts 24°
2026-04-22 16:52 54.94182 -5.10709 21041 ft 351 kts 24°
2026-04-22 16:52 54.97824 -5.07630 20445 ft 349 kts 25°
2026-04-22 16:52 54.99997 -5.05766 20106 ft 347 kts 25°
2026-04-22 16:53 55.02151 -5.03903 19782 ft 345 kts 25°
2026-04-22 16:53 55.04295 -5.02040 19449 ft 343 kts 26°
2026-04-22 16:53 55.06426 -5.00183 19138 ft 341 kts 26°
2026-04-22 16:53 55.08548 -4.98333 18824 ft 340 kts 26°
2026-04-22 16:54 55.10546 -4.96179 18414 ft 339 kts 44°
2026-04-22 16:54 55.11954 -4.92931 18048 ft 335 kts 65°
2026-04-22 16:54 55.12932 -4.89246 17604 ft 335 kts 69°
2026-04-22 16:54 55.13850 -4.85512 17255 ft 332 kts 69°
2026-04-22 16:55 55.14741 -4.81826 17021 ft 327 kts 70°
2026-04-22 16:55 55.15625 -4.78171 16666 ft 326 kts 70°
2026-04-22 16:55 55.16508 -4.74532 16354 ft 324 kts 70°
2026-04-22 16:55 55.17386 -4.70943 16108 ft 320 kts 70°
2026-04-22 16:56 55.18259 -4.67380 15937 ft 317 kts 70°
2026-04-22 16:56 55.19125 -4.63849 15753 ft 315 kts 70°
2026-04-22 16:56 55.19985 -4.60347 15582 ft 313 kts 70°
2026-04-22 16:56 55.20843 -4.56854 15412 ft 312 kts 70°
2026-04-22 16:57 55.21699 -4.53361 15243 ft 313 kts 70°
2026-04-22 16:57 55.22561 -4.49843 15066 ft 315 kts 70°
2026-04-22 16:57 55.23421 -4.46328 14898 ft 314 kts 70°
2026-04-22 16:57 55.24278 -4.42824 14707 ft 312 kts 70°
2026-04-22 16:58 55.25130 -4.39336 14527 ft 310 kts 70°
2026-04-22 16:58 55.25973 -4.35879 14363 ft 308 kts 70°
2026-04-22 16:58 55.26811 -4.32438 14192 ft 306 kts 71°
2026-04-22 16:58 55.27642 -4.29014 14006 ft 305 kts 70°
2026-04-22 16:59 55.28470 -4.25601 13820 ft 303 kts 71°
2026-04-22 16:59 55.29291 -4.22211 13643 ft 301 kts 71°
2026-04-22 16:59 55.30109 -4.18829 13486 ft 300 kts 71°
2026-04-22 16:59 55.30919 -4.15476 13300 ft 298 kts 71°
2026-04-22 17:00 55.31726 -4.12131 13150 ft 297 kts 71°
2026-04-22 17:00 55.33320 -4.05502 12828 ft 296 kts 71°
2026-04-22 17:00 55.34118 -4.02172 12670 ft 296 kts 71°
2026-04-22 17:01 55.34919 -3.98829 12490 ft 297 kts 71°
2026-04-22 17:01 55.35718 -3.95491 12349 ft 296 kts 71°
2026-04-22 17:01 55.36516 -3.92151 12184 ft 296 kts 71°
2026-04-22 17:01 55.37310 -3.88823 12019 ft 295 kts 71°
2026-04-22 17:02 55.38099 -3.85507 11841 ft 294 kts 71°
2026-04-22 17:02 55.38887 -3.82194 11680 ft 293 kts 71°
2026-04-22 17:02 55.39672 -3.78890 11522 ft 292 kts 71°
2026-04-22 17:02 55.40452 -3.75596 11389 ft 292 kts 71°
2026-04-22 17:03 55.41231 -3.72306 11216 ft 291 kts 71°
2026-04-22 17:03 55.42008 -3.69017 11040 ft 290 kts 71°
2026-04-22 17:03 55.42778 -3.65759 10901 ft 287 kts 71°
2026-04-22 17:03 55.43544 -3.62509 10743 ft 287 kts 71°
2026-04-22 17:04 55.44307 -3.59265 10576 ft 284 kts 71°
2026-04-22 17:04 55.45053 -3.56090 10406 ft 278 kts 71°
2026-04-22 17:04 55.45783 -3.52983 10253 ft 271 kts 71°
2026-04-22 17:04 55.46494 -3.49947 10093 ft 266 kts 71°
2026-04-22 17:05 55.47198 -3.46940 9950 ft 265 kts 71°
2026-04-22 17:05 55.47899 -3.43932 9798 ft 266 kts 72°
2026-04-22 17:05 55.48583 -3.40997 9655 ft 267 kts 71°
2026-04-22 17:05 55.49289 -3.37968 9500 ft 268 kts 71°
2026-04-22 17:06 55.50246 -3.35189 9318 ft 276 kts 46°
2026-04-22 17:06 55.51834 -3.33268 9228 ft 278 kts 33°
2026-04-22 17:06 55.53531 -3.31613 9054 ft 280 kts 31°
2026-04-22 17:06 55.55252 -3.29974 8890 ft 281 kts 32°
2026-04-22 17:07 55.56974 -3.28324 8741 ft 282 kts 32°
2026-04-22 17:07 55.58691 -3.26667 8566 ft 280 kts 32°
2026-04-22 17:07 55.60387 -3.25017 8393 ft 275 kts 32°
2026-04-22 17:07 55.62043 -3.23397 8246 ft 271 kts 33°
2026-04-22 17:08 55.63688 -3.21782 8103 ft 270 kts 32°
2026-04-22 17:08 55.65325 -3.20170 7961 ft 269 kts 33°
2026-04-22 17:08 55.66960 -3.18559 7817 ft 268 kts 32°
2026-04-22 17:08 55.68660 -3.17213 7641 ft 271 kts 14°
2026-04-22 17:09 55.70524 -3.17378 7486 ft 271 kts 343°
2026-04-22 17:09 55.72097 -3.19126 7346 ft 267 kts 311°
2026-04-22 17:09 55.73043 -3.21907 7218 ft 264 kts 288°
2026-04-22 17:09 55.73581 -3.25032 7079 ft 266 kts 284°
2026-04-22 17:10 55.74068 -3.28209 6835 ft 266 kts 283°
2026-04-22 17:10 55.74548 -3.31394 6525 ft 266 kts 283°
2026-04-22 17:10 55.75027 -3.34545 6322 ft 263 kts 283°
2026-04-22 17:10 55.75507 -3.37679 6005 ft 266 kts 283°
2026-04-22 17:11 55.75997 -3.40855 5813 ft 266 kts 283°
2026-04-22 17:11 55.76491 -3.44045 5625 ft 268 kts 283°
2026-04-22 17:11 55.76985 -3.47224 5482 ft 266 kts 283°
2026-04-22 17:11 55.77466 -3.50325 5324 ft 262 kts 283°
2026-04-22 17:12 55.77948 -3.53419 5168 ft 257 kts 284°
2026-04-22 17:12 55.78420 -3.56456 4992 ft 253 kts 283°
2026-04-22 17:12 55.78889 -3.59476 4844 ft 248 kts 283°
2026-04-22 17:12 55.79342 -3.62398 4702 ft 243 kts 283°
2026-04-22 17:13 55.79778 -3.65226 4569 ft 238 kts 283°
2026-04-22 17:13 55.80302 -3.67994 4418 ft 235 kts 300°
2026-04-22 17:13 55.81475 -3.69802 4296 ft 218 kts 346°
2026-04-22 17:13 55.82869 -3.69739 4175 ft 194 kts 33°
2026-04-22 17:14 55.83783 -3.68223 4004 ft 174 kts 57°
2026-04-22 17:14 55.84635 -3.66692 3852 ft 172 kts 51°
2026-04-22 17:14 55.85426 -3.65034 3618 ft 175 kts 58°
2026-04-22 17:14 55.86140 -3.63319 3392 ft 170 kts 62°
2026-04-22 17:15 55.86573 -3.62143 3227 ft 167 kts 63°
2026-04-22 17:15 55.87369 -3.59839 2925 ft 164 kts 63°
2026-04-22 17:15 55.87950 -3.58122 2729 ft 159 kts 63°
2026-04-22 17:15 55.88504 -3.56481 2495 ft 149 kts 63°
2026-04-22 17:16 55.89024 -3.54939 2295 ft 144 kts 63°
2026-04-22 17:16 55.89540 -3.53404 2120 ft 144 kts 62°
2026-04-22 17:16 55.90068 -3.51835 1880 ft 148 kts 62°
2026-04-22 17:16 55.90595 -3.50276 1663 ft 146 kts 62°
2026-04-22 17:17 55.91105 -3.48764 1489 ft 141 kts 62°
2026-04-22 17:17 55.91614 -3.47255 1298 ft 145 kts 62°
2026-04-22 17:17 55.92135 -3.45714 1069 ft 142 kts 62°
2026-04-22 17:17 55.92620 -3.44284 856 ft 126 kts 62°
2026-04-22 17:18 55.93048 -3.43016 707 ft 113 kts 61°
2026-04-22 17:18 55.93463 -3.41786 544 ft 119 kts 62°
2026-04-22 17:18 55.93885 -3.40540 394 ft 116 kts 61°
2026-04-22 17:18 55.94305 -3.39302 241 ft 116 kts 60°
2026-04-22 17:19 55.95050 -3.37092 106 ft 75 kts 59°
2026-04-22 17:19 55.95249 -3.36433 105 ft 10 kts 122°
2026-04-22 17:20 55.95137 -3.36330 105 ft 9 kts 202°
2026-04-22 17:20 55.95024 -3.36353 106 ft 9 kts 149°
2026-04-22 17:21 55.94976 -3.36300 106 ft 8 kts 147°
2026-04-22 17:21 55.94960 -3.36283 106 ft 0 kts 148°